This demonstration page uses our WeatherBlox Daily Observations layout. Learn more.

41.55636, -103.73856

Hourly Observations for December 20, 2015

Temp ( °F °C ) Dew Point ( °F °C ) Humidity (%) Winds ( mph kmh ) Pressure ( in mb ) Visibility ( mi km ) Precip ( " mm )
12:53 am 00:53 Clear 21 -6 18 -8 86 86 NNW 12 19 29.94 1014 8 12.874752 0 0
1:53 am 01:53 Clear 21 -6 18 -8 86 86 SSE 3 6 29.94 1014 7 11.265408 0 0
2:53 am 02:53 Clear 21 -6 18 -8 86 86 N 13 20 29.94 1014 7 11.265408 0 0
3:53 am 03:53 Clear 19 -7 16 -9 86 86 Calm 29.94 1014 7 11.265408 0 0
4:53 am 04:53 Clear with Mist and Fog 19 -7 18 -8 93 93 N 8 13 29.91 1013 6 9.656064 0 0
5:53 am 05:53 Clear with Mist and Fog 21 -6 18 -8 86 86 SSE 3 6 29.94 1014 6 9.656064 0 0
6:53 am 06:53 Clear 27 -3 19 -7 74 74 Calm 29.85 1011 8 12.874752 0 0
7:53 am 07:53 Sunny 28 -2 21 -6 74 74 SSW 5 7 29.83 1010 10 16.09344 0 0
8:53 am 08:53 Sunny 30 -1 23 -5 75 75 WNW 5 7 29.85 1011 10 16.09344 0 0
9:53 am 09:53 Sunny 36 2 27 -3 70 70 NNW 10 17 29.8 1009 10 16.09344 0 0
10:53 am 10:53 Sunny 39 4 27 -3 61 61 N 8 13 29.77 1008 10 16.09344 0 0
11:53 am 11:53 Sunny 37 3 27 -3 65 65 NNE 9 15 29.8 1009 10 16.09344 0 0
12:53 pm 12:53 Mostly Sunny 36 2 27 -3 70 70 N 14 22 29.8 1009 10 16.09344 0 0
1:53 pm 13:53 Mostly Cloudy 32 0 25 -4 75 75 NNE 10 17 29.83 1010 10 16.09344 0 0
2:53 pm 14:53 Mostly Sunny 30 -1 25 -4 80 80 NE 10 17 29.91 1013 10 16.09344 0 0
3:53 pm 15:53 Sunny 30 -1 25 -4 80 80 NNE 9 15 29.91 1013 10 16.09344 0 0
4:53 pm 16:53 Clear 28 -2 23 -5 80 80 Calm 29.97 1015 10 16.09344 0 0
5:53 pm 17:53 Clear 25 -4 21 -6 86 86 Calm 30 1016 10 16.09344 0 0
6:53 pm 18:53 Partly Cloudy 23 -5 19 -7 86 86 Calm 30.03 1017 9 14.484096 0 0
7:03 pm 19:03 Mostly Cloudy 23 -5 21 -6 93 93 S 5 7 30.03 1017 7 11.265408 0 0
7:53 pm 19:53 Cloudy 23 -5 21 -6 93 93 S 3 6 30.03 1017 8 12.874752 0 0
8:53 pm 20:53 Cloudy 25 -4 21 -6 86 86 Calm 30 1016 8 12.874752 0 0
9:11 pm 21:11 Cloudy 25 -4 23 -5 93 93 Calm 30 1016 9 14.484096 0 0
9:53 pm 21:53 Cloudy 27 -3 23 -5 86 86 Calm 29.97 1015 9 14.484096 0 0
10:53 pm 22:53 Cloudy 27 -3 23 -5 86 86 SSW 3 6 29.97 1015 8 12.874752 0 0
11:35 pm 23:35 Cloudy 27 -3 25 -4 93 93 SE 6 9 29.94 1014 7 11.265408 0 0
11:53 pm 23:53 Cloudy with Mist and Fog 27 -3 25 -4 93 93 SE 5 7 29.94 1014 6 9.656064 0 0

Powered by AerisWeather